Temp
22 23 22 21 25 25 25 26 26 24 23 23 23 24 22 21 22 22 18 19 20 19 18 18 19 19 19 19 19 19 19 19 19 19 19 19 19 19 19 18 17 16 16 16 16 17 18 18 18
23 23 21 23 26 25 26 25 24 23 22 23 23 23 23 20 20 18 18 17 19 18 18 18 19 19 19 18 19 19 19 19 19 19 19 19 19 19 18 18 17 16 16 16 17 17 17 17 17
22 22 23 24 23 25 25 25 24 23 23 24 22 22 19 20 19 18 18 18 17 18 17 19 19 18 18 18 19 19 19 19 19 19 18 19 18 18 18 18 17 17 16 16 17 17 17 17 17
22 22 22 25 24 24 25 25 23 20 21 23 24 21 20 18 18 18 17 17 17 18 17 18 18 18 18 18 19 19 19 19 19 18 18 18 18 18 18 17 17 17 17 17 17 17 17 17 17
21 22 24 23 23 24 25 25 24 24 21 21 23 22 20 18 18 17 17 17 17 17 17 18 18 18 17 18 19 19 19 18 18 18 18 18 18 18 17 17 17 17 17 17 17 17 17 17 17
24 22 24 24 23 24 24 24 24 23 22 24 22 21 19 17 17 17 17 17 17 18 17 17 18 18 18 18 18 18 18 19 18 18 18 18 18 17 17 17 17 17 17 17 17 17 17 17 17
23 23 23 24 24 24 24 24 24 24 23 23 22 21 18 18 17 17 17 17 17 17 17 17 17 18 18 18 18 18 18 18 18 18 18 18 17 17 17 17 17 17 17 17 17 17 17 17 17
22 23 23 23 23 23 24 24 24 24 23 22 22 21 19 18 17 17 17 17 17 17 17 17 17 17 18 18 18 18 18 18 18 18 18 17 17 17 17 17 17 17 17 17 17 17 17 17 17
21 23 23 23 21 24 24 24 23 23 23 22 20 21 20 17 16 16 17 16 16 17 17 17 18 17 18 18 18 18 18 18 17 18 17 17 17 17 17 17 17 17 17 17 17 17 17 17 17
23 23 24 24 25 22 21 24 23 23 22 21 19 17 16 16 16 16 16 16 16 17 17 18 17 18 18 18 18 18 18 17 17 17 17 17 17 17 17 17 17 17 17 17 16 16 16 16 16
22 24 23 24 25 27 25 23 23 22 23 23 21 17 17 16 16 17 16 16 17 18 18 18 18 18 18 18 17 17 17 17 17 17 17 17 17 17 17 17 16 16 16 16 16 16 16 15 15
24 23 24 25 26 24 24 22 22 24 24 23 21 19 18 17 17 16 17 17 17 17 18 18 18 18 18 17 17 18 18 17 17 17 17 17 17 17 16 16 16 16 16 16 15 15 15 15 14
23 24 24 23 23 24 23 23 24 24 21 22 20 19 19 19 18 17 18 17 17 17 18 18 18 17 17 17 17 17 17 17 16 16 16 16 16 16 16 16 16 16 15 15 15 14 14 14 14
23 24 23 22 22 23 24 23 25 23 20 21 20 20 20 19 18 18 18 18 17 17 17 18 17 17 17 17 17 17 16 15 15 15 16 16 16 15 15 15 15 15 15 15 14 14 13 13 13
23 24 24 23 24 23 24 24 23 20 21 20 20 19 19 19 19 19 19 18 17 18 17 17 16 17 17 17 17 16 16 15 14 14 15 16 15 15 15 15 15 15 14 13 13 13 12 11 11
24 23 24 24 24 22 24 24 19 18 20 20 20 19 19 19 19 18 18 18 17 17 16 15 16 16 16 16 16 15 15 15 14 14 15 16 15 15 15 15 14 13 12 13 12 12 11 10 10
22 24 23 24 22 23 23 22 18 17 20 19 19 19 19 18 16 14 16 17 17 17 16 15 15 16 16 17 16 13 14 15 15 15 15 15 15 15 14 13 12 12 12 11 11 10 9 9 9
23 23 22 24 22 21 20 18 17 17 19 18 17 17 17 16 14 12 13 14 14 14 14 15 15 16 14 15 15 14 15 14 15 15 15 14 13 13 13 12 11 11 11 10 8 8 8 8 7
22 22 23 21 19 19 17 17 16 16 17 17 16 16 16 15 13 13 13 13 13 13 14 16 15 16 15 14 14 14 14 14 14 13 13 13 13 12 12 11 10 10 9 8 7 7 7 8 6
22 22 21 20 19 19 18 17 17 16 15 16 16 16 16 15 14 13 13 14 14 14 14 15 15 16 15 15 15 15 15 13 13 13 12 12 11 11 11 10 10 9 8 8 8 6 6 6 5
20 22 21 21 20 19 20 19 17 16 16 15 15 15 15 15 14 14 14 14 14 14 14 14 15 16 15 15 15 14 14 12 11 11 11 11 11 11 10 10 9 9 8 7 6 5 5 6 5
21 21 20 20 22 22 19 23 18 17 16 16 16 16 15 15 15 15 14 13 13 14 15 15 15 15 14 14 14 14 13 13 11 11 11 11 11 10 10 10 9 8 7 6 5 5 4 4 5
21 20 20 20 20 21 21 22 19 17 17 17 16 15 15 15 16 15 15 14 13 14 14 14 14 14 14 14 14 14 13 12 11 11 11 11 11 10 10 9 8 7 7 6 5 4 4 4 4
19 20 19 18 19 21 19 21 20 18 19 18 17 16 15 15 15 14 13 13 14 15 15 15 14 14 14 14 13 13 12 12 11 11 11 11 10 10 10 9 7 6 6 5 4 4 3 3 3
20 21 20 20 20 20 18 18 21 19 18 19 17 17 16 15 15 15 14 14 13 13 14 14 14 13 13 13 12 12 12 11 11 10 9 9 9 8 8 7 6 6 5 5 4 3 3 3 3
19 20 19 19 19 19 18 19 21 18 18 19 18 17 16 15 15 15 14 13 13 12 12 13 13 12 12 12 12 11 11 11 10 9 9 9 8 8 7 7 6 6 6 4 3 3 3 2 2
19 19 18 16 13 17 19 19 19 16 17 17 17 16 16 16 15 15 13 12 11 11 11 12 12 12 12 12 11 11 10 9 9 9 9 8 7 7 6 6 6 5 4 3 4 3 2 2 2
20 18 19 17 18 18 18 18 20 17 17 17 16 16 16 15 14 13 12 11 10 10 11 12 12 12 12 11 10 9 9 9 8 8 8 7 7 7 6 6 4 3 3 3 3 2 2 2 2
19 18 16 17 16 18 17 20 17 19 18 17 17 17 16 14 13 12 11 11 10 10 11 11 11 11 10 10 9 9 9 8 8 7 7 6 6 5 5 4 3 3 3 3 2 1 2 2 1
19 18 17 17 17 13 15 19 16 16 17 17 17 15 13 13 12 12 11 11 10 10 10 10 10 10 10 9 9 9 8 8 7 6 6 5 4 4 3 3 3 2 2 2 1 1 1 1 -0
Height
798 797 798 799 807 804 813 808 796 806 812 810 806 807 816 818 822 832 827 827 830 834 840 845 848 847 850 852 852 853 854 855 856 856 858 858 859 860 861 861 862 862 861 860 861 859 857 856 856
797 797 798 798 807 816 814 803 805 810 812 808 808 812 815 826 821 824 830 831 829 836 841 845 849 848 851 853 853 855 855 855 857 858 859 860 860 861 862 864 863 863 862 862 860 859 857 858 858
797 797 800 800 812 813 812 806 807 811 811 807 814 814 822 825 822 827 829 831 834 836 842 845 849 851 852 854 854 854 855 857 859 859 861 861 861 862 863 864 864 865 866 866 865 862 861 860 860
796 798 802 803 811 808 807 802 805 817 816 809 808 819 822 821 821 825 829 834 836 840 843 846 849 851 853 855 855 856 857 859 861 862 864 863 864 865 866 867 865 865 865 865 865 864 862 861 862
796 800 806 810 811 806 802 799 801 808 823 818 812 821 821 822 826 827 828 835 837 842 845 847 851 852 854 856 856 859 860 861 862 863 864 865 866 867 867 867 867 869 868 867 866 865 866 863 862
797 803 809 811 810 801 801 801 798 807 814 811 816 812 821 823 826 831 832 836 840 842 846 849 851 853 855 857 858 859 860 861 862 864 865 866 866 867 868 870 869 868 868 870 870 866 866 866 863
800 804 810 807 809 808 804 801 805 806 807 812 810 818 824 825 826 832 834 837 840 844 846 849 851 854 856 858 860 862 862 864 865 866 867 868 869 869 869 869 870 872 869 870 869 867 867 866 865
797 801 810 808 816 817 803 800 800 797 812 808 810 817 824 824 827 831 836 838 841 844 846 850 853 856 858 859 862 863 864 865 867 867 868 869 869 871 871 871 870 871 871 872 869 868 869 867 867
796 804 810 811 816 812 802 804 800 801 807 808 811 811 814 821 827 831 836 839 841 844 847 850 852 856 858 860 862 864 866 868 869 869 870 870 870 871 870 871 873 873 872 874 871 870 869 868 867
797 804 802 796 797 808 811 804 802 807 810 812 816 817 819 822 826 831 835 838 841 844 847 850 853 856 860 862 864 865 868 869 869 871 871 871 871 871 872 872 874 873 874 874 872 871 869 868 868
798 799 795 792 788 786 797 802 799 808 813 807 810 817 819 824 829 831 836 837 840 843 848 850 854 857 861 863 867 867 870 870 870 872 872 871 872 872 872 873 874 873 874 875 873 871 870 868 867
796 790 791 784 784 789 798 798 805 801 800 800 805 811 819 825 829 833 835 838 842 844 849 852 856 860 863 865 867 869 870 872 871 872 871 871 872 871 871 873 874 874 874 874 874 872 871 869 867
793 787 787 788 788 790 793 799 799 801 803 803 811 817 819 823 829 834 839 843 844 848 850 853 858 861 864 866 869 871 872 872 871 871 871 871 872 871 871 873 873 874 874 874 872 872 871 869 866
783 786 788 790 790 793 797 802 797 806 807 808 812 816 819 825 830 836 839 842 844 847 851 854 858 863 865 867 869 871 872 871 871 871 871 872 872 872 871 872 873 874 873 873 873 870 869 868 865
784 789 790 793 791 797 795 809 814 813 811 813 817 822 825 829 833 836 840 842 845 848 851 853 859 863 865 867 870 871 870 871 870 871 870 870 870 872 873 873 873 873 874 872 871 869 868 867 863
789 794 801 795 792 800 797 819 821 817 815 816 819 824 827 830 834 838 840 843 845 849 852 856 859 862 864 867 870 871 870 870 870 870 872 871 871 872 872 872 872 872 871 869 869 867 866 865 862
799 803 806 802 800 799 804 820 822 821 816 822 823 826 828 832 835 837 837 840 842 847 851 855 859 861 863 862 859 866 872 869 870 869 872 873 873 872 870 871 870 872 869 869 868 867 865 863 860
804 807 808 804 806 805 814 827 825 823 818 824 828 831 832 834 837 839 839 839 842 846 848 851 857 858 865 864 863 868 870 869 869 870 871 870 871 872 872 871 871 872 869 868 868 867 865 862 858
796 802 805 809 813 817 830 830 830 828 825 829 830 832 835 837 840 840 839 841 843 847 849 851 852 854 858 863 866 867 869 867 867 868 870 870 872 872 871 872 872 870 868 868 867 865 862 860 857
798 803 811 815 814 816 828 831 831 832 833 832 831 833 834 837 839 839 839 840 844 846 849 852 853 855 858 862 863 865 867 867 867 869 870 870 871 871 871 870 869 869 868 867 865 863 861 859 856
806 804 808 811 816 818 820 827 832 834 834 835 835 834 835 836 837 839 841 842 844 847 849 852 854 856 860 862 865 866 867 867 869 870 869 870 870 869 868 868 868 867 867 865 864 862 861 858 857
808 802 805 810 810 817 821 819 831 835 836 835 835 835 836 837 839 840 843 844 846 848 847 850 854 857 861 865 866 866 866 867 867 868 869 869 869 869 868 866 865 865 864 862 861 859 858 857 855
807 803 805 812 817 819 821 819 829 833 835 833 833 836 839 839 840 843 845 844 843 849 853 855 857 859 861 862 863 863 864 865 866 867 868 868 868 867 866 864 863 862 861 860 859 857 857 856 855
803 806 814 821 822 828 828 824 823 828 820 826 830 835 839 841 843 844 845 845 845 847 848 851 857 857 858 860 862 863 864 866 867 867 867 867 866 865 863 862 860 859 858 856 855 854 854 853 852
802 809 828 831 832 831 832 832 810 814 817 816 825 831 836 839 841 842 843 846 845 846 850 851 856 856 858 860 862 864 865 866 866 867 866 865 863 861 859 858 856 855 854 853 852 851 851 850 849
811 810 826 837 838 831 831 826 807 814 812 813 819 827 834 837 839 842 845 848 849 850 851 853 856 858 859 860 862 863 864 865 865 865 864 862 860 858 856 854 853 852 851 851 849 848 848 848 845
813 819 820 838 858 843 827 820 810 816 816 818 821 827 830 833 837 841 845 847 849 852 854 856 857 858 859 860 861 863 864 865 865 864 862 860 857 855 853 852 850 849 848 847 846 844 844 844 843
803 814 822 830 841 839 829 828 810 816 816 817 821 822 826 831 836 841 845 848 851 854 855 856 857 858 859 859 861 862 863 864 863 861 860 858 856 854 851 849 847 845 844 843 843 840 841 839 839
811 816 829 830 840 836 841 816 809 804 807 811 812 816 822 829 835 840 845 849 851 853 855 857 858 858 858 859 860 861 861 861 860 859 858 856 854 851 848 844 842 840 840 839 838 837 836 836 836
806 812 817 827 836 851 845 819 809 809 807 808 810 818 824 829 835 840 845 848 851 853 855 856 857 857 857 859 860 860 859 858 857 857 856 854 851 847 843 840 838 837 837 836 834 833 833 833 832
Wind_Speed
4 3 2 1 3 2 2 1 2 7 4 4 6 6 8 8 2 1 9 11 26 25 20 21 23 24 23 22 21 20 19 18 17 17 16 16 16 17 17 17 16 15 15 15 15 16 18 18 18
3 1 1 1 2 2 1 3 10 9 10 7 8 6 6 3 2 5 8 13 28 23 22 21 21 22 22 21 19 19 18 17 17 17 17 17 18 18 17 17 17 15 15 15 15 18 19 20 19
2 3 1 2 3 4 3 13 17 13 3 6 3 6 3 4 6 9 4 19 22 24 22 22 21 22 20 18 17 17 17 17 17 17 17 17 18 17 17 17 17 16 17 17 19 21 21 20 19
4 2 1 1 3 1 1 16 18 9 8 11 3 5 5 1 9 12 18 20 22 22 21 22 22 21 19 17 16 16 16 16 16 17 16 17 17 17 17 17 18 18 19 19 19 19 19 21 21
2 2 1 2 2 1 4 12 9 11 7 9 5 7 3 4 10 20 24 22 22 20 19 21 20 19 17 16 15 15 15 15 16 16 17 17 17 17 18 18 18 18 18 18 18 18 18 19 20
1 1 1 3 3 3 5 8 16 14 10 5 3 5 3 10 17 20 22 21 19 22 20 19 19 18 16 15 15 16 15 16 16 17 18 17 18 17 17 16 16 16 17 16 16 16 17 17 18
0 1 3 7 6 4 5 10 11 10 6 4 5 5 4 8 17 20 20 19 18 20 19 18 17 16 15 15 15 14 14 15 16 16 16 17 15 15 14 14 12 11 12 12 13 15 15 15 15
2 2 2 3 7 6 4 8 5 7 5 4 4 5 6 11 19 19 18 19 18 18 18 18 16 15 14 15 14 14 14 16 15 15 15 14 13 11 11 10 9 8 8 8 9 11 12 13 13
3 2 4 7 12 4 4 0 2 3 4 3 3 3 10 23 24 22 20 18 16 18 19 18 17 16 15 15 14 13 13 14 13 13 12 11 10 8 8 7 6 6 6 6 8 9 10 12 12
2 1 6 8 10 9 3 12 9 4 7 2 4 10 20 21 20 19 16 15 14 20 19 17 17 16 15 15 14 13 13 13 11 9 9 7 6 5 4 4 4 6 7 8 8 8 10 12 13
4 4 3 7 7 15 18 3 3 9 11 6 10 15 17 18 16 17 16 16 19 19 19 18 16 16 14 13 13 12 11 10 8 7 6 4 3 3 3 5 6 8 7 7 7 9 12 14 14
3 5 6 8 10 10 8 10 7 9 1 3 14 21 19 16 16 18 19 19 17 18 17 16 14 13 12 11 11 10 9 7 5 4 4 3 4 6 8 7 7 6 7 6 8 11 13 14 15
4 4 4 2 7 7 7 3 4 6 3 12 17 16 17 17 18 16 12 11 14 15 17 15 13 11 10 6 5 5 5 5 5 5 3 4 6 7 8 8 7 6 5 6 8 11 13 14 14
5 4 4 4 8 6 6 3 3 2 7 14 17 16 15 16 18 14 13 13 14 14 14 13 12 9 7 4 1 4 7 8 7 4 3 3 5 8 8 7 6 5 7 9 10 11 12 13 15
6 6 4 4 4 4 8 5 5 5 9 14 13 10 11 11 12 15 13 12 13 13 14 14 11 5 5 2 4 4 9 11 9 3 3 6 8 7 6 5 5 5 5 6 8 11 13 13 15
3 4 4 2 4 2 2 5 5 5 9 12 12 10 10 6 7 4 6 10 10 11 11 14 16 16 18 18 10 10 15 8 5 7 6 7 7 6 3 1 1 3 5 9 12 14 14 13 13
6 3 2 4 6 5 1 2 7 7 9 8 8 8 8 5 6 6 2 8 13 13 18 20 21 20 14 6 8 14 7 3 8 10 9 8 6 5 4 3 5 6 10 12 14 12 12 11 11
4 4 0 3 4 10 9 4 9 7 7 8 6 6 6 4 5 6 7 11 15 18 23 25 21 18 9 14 3 9 9 12 12 9 5 8 5 2 3 6 9 12 15 14 12 11 11 10 11
5 4 4 3 2 7 5 5 8 5 7 7 6 6 6 5 4 6 10 14 17 21 25 23 22 19 7 11 16 15 15 13 9 7 8 4 2 3 9 12 13 15 13 13 14 12 12 12 14
4 9 4 4 2 5 4 9 8 6 3 2 7 7 7 8 8 9 13 16 16 19 18 18 14 11 15 19 18 14 12 8 8 8 6 4 4 8 10 16 15 13 10 13 15 12 9 9 10
3 6 3 5 6 6 4 3 3 5 5 5 4 6 8 12 12 11 13 14 15 15 16 15 15 17 17 17 14 8 8 8 7 5 2 4 5 7 11 14 9 8 9 9 9 8 8 10 9
4 1 5 8 2 2 3 2 1 3 4 5 7 10 10 12 11 11 13 11 12 13 16 18 21 18 19 12 8 7 2 2 2 1 2 3 8 9 12 10 9 7 8 8 7 7 7 7 8
4 3 4 3 4 3 1 2 1 4 6 9 9 8 7 8 9 11 14 16 17 15 14 15 16 14 11 6 4 2 4 6 7 5 4 5 9 12 14 12 10 9 9 9 8 6 5 6 7
9 5 6 4 2 2 1 3 4 7 10 13 10 8 8 8 9 11 12 14 15 16 16 15 11 10 7 6 7 10 10 8 6 6 7 9 13 15 16 15 13 10 8 7 6 9 6 6 6
3 4 1 1 0 3 2 3 5 8 7 17 15 12 11 10 10 10 12 11 12 13 13 13 11 12 11 10 9 9 7 6 5 6 8 11 12 15 18 16 14 13 11 10 11 9 8 8 8
3 2 4 4 3 1 1 5 1 3 8 15 15 14 11 11 9 8 10 9 9 10 12 12 10 10 8 8 7 5 3 5 7 11 14 15 18 20 20 16 14 15 15 10 12 9 10 9 8
3 2 2 6 2 0 2 3 5 2 7 11 14 13 14 13 11 10 9 9 11 11 11 9 8 7 7 6 2 1 5 6 7 9 12 14 15 15 13 14 17 17 12 13 13 10 11 12 12
1 7 3 2 3 3 2 4 6 4 11 13 15 16 14 12 10 9 11 12 11 9 8 8 9 8 6 4 2 1 2 3 7 10 12 12 14 16 19 20 16 14 13 14 14 11 13 15 13
3 2 5 4 1 2 2 4 4 9 14 17 17 16 15 12 10 10 12 11 9 9 8 8 8 6 6 4 4 4 3 7 9 9 10 12 15 19 21 21 18 16 15 14 15 12 11 14 14
1 3 4 3 4 1 0 5 1 5 8 12 14 10 9 10 10 12 13 10 9 9 8 7 5 5 6 5 3 3 7 7 7 9 10 15 19 22 21 18 12 9 13 14 12 9 10 11 10
Wind_Direction
282 266 254 204 203 44 332 269 133 110 82 72 59 82 90 43 50 31 147 155 154 153 153 156 158 149 148 146 142 137 130 127 124 120 116 112 108 105 102 98 93 85 76 68 61 56 52 50 43
275 173 63 221 124 159 194 304 99 102 134 116 70 56 55 66 99 85 136 159 153 146 150 155 160 152 152 149 145 138 132 127 123 120 115 113 108 104 99 94 87 80 73 69 67 65 58 50 44
226 152 257 118 115 184 136 120 114 107 109 101 84 90 33 314 106 135 187 160 147 146 152 158 160 156 152 149 142 134 129 127 124 121 118 114 109 105 98 91 84 75 70 68 71 67 56 48 44
194 81 84 166 165 206 260 145 117 106 6 8 112 81 135 220 141 171 158 152 146 151 157 159 162 158 154 151 138 135 131 128 126 118 118 113 107 101 94 89 83 81 79 75 75 64 58 51 46
65 89 112 104 127 208 218 136 128 104 118 189 180 170 84 87 136 147 153 151 152 154 159 161 163 158 154 148 143 139 136 132 127 124 121 113 107 100 96 96 88 84 78 76 74 67 56 53 48
68 80 121 91 52 45 72 120 82 104 223 169 182 88 84 128 138 145 147 154 158 159 163 162 163 158 156 153 151 146 142 135 131 128 121 116 114 107 106 98 91 85 78 70 63 60 54 48 47
194 152 135 112 87 37 82 105 117 172 159 205 125 110 116 135 144 152 153 154 158 165 162 163 161 162 163 159 156 151 143 138 132 127 127 121 118 108 104 98 93 85 83 76 66 57 49 43 38
140 112 114 67 59 53 133 145 155 134 208 110 138 165 158 164 150 152 151 161 168 166 167 167 165 167 166 161 161 157 148 142 137 134 134 129 119 111 98 95 95 88 72 66 63 59 45 38 27
122 96 151 151 154 134 302 88 114 42 131 69 24 132 137 147 154 152 160 169 174 172 173 172 172 175 170 166 165 159 152 147 143 145 138 131 125 121 115 101 87 71 54 50 58 53 36 29 27
161 150 209 168 143 154 38 254 171 127 179 122 85 94 128 142 151 156 164 169 174 175 178 179 179 174 172 172 168 162 157 159 156 154 153 146 137 130 116 97 91 74 67 72 60 40 35 37 28
161 210 167 181 187 148 187 137 83 144 202 189 169 148 139 144 161 165 176 187 181 178 182 182 177 174 172 174 171 163 163 164 168 176 178 174 159 153 126 116 108 94 82 63 48 41 31 20 16
202 233 159 211 195 163 168 136 149 184 152 206 157 152 150 160 170 176 185 187 189 184 181 177 174 171 173 172 169 171 175 183 173 193 207 208 173 152 139 130 109 91 74 60 43 25 12 6 2
198 209 199 341 127 133 127 156 153 185 20 127 137 159 161 167 178 190 190 193 195 184 181 175 174 173 171 158 178 195 210 227 230 233 225 171 162 153 141 130 112 97 72 41 19 7 357 355 355
200 148 141 127 156 125 155 115 111 201 136 131 154 171 168 171 183 193 196 198 198 189 179 175 175 174 167 168 184 256 264 277 279 256 197 179 168 154 140 118 90 52 25 7 357 356 352 346 342
141 90 104 73 150 108 129 57 22 328 161 148 162 161 161 175 188 208 212 206 200 193 181 170 155 150 163 138 57 310 320 300 277 226 166 162 154 142 112 75 47 30 15 10 356 356 348 340 338
75 78 106 4 99 80 139 169 9 358 159 155 156 155 167 156 186 190 218 206 192 182 155 146 140 114 113 97 48 316 304 297 216 162 156 142 132 116 106 86 59 26 4 1 353 351 344 337 337
21 138 124 127 43 129 76 124 337 341 143 132 135 140 145 131 79 47 66 170 168 168 154 139 136 128 121 139 329 293 248 185 150 132 129 123 132 159 162 113 47 13 7 1 354 347 341 331 333
161 126 113 139 34 67 80 55 352 357 136 123 122 124 122 107 48 60 96 135 148 147 144 144 134 131 356 282 309 175 170 154 136 136 162 177 169 117 57 36 24 11 3 357 356 350 341 332 338
134 126 128 44 56 76 78 74 25 31 100 125 138 134 123 102 91 109 118 136 136 139 139 143 156 175 245 199 166 158 158 153 163 171 161 147 125 63 39 31 6 357 4 6 358 350 344 342 343
104 128 86 102 63 94 137 72 54 44 61 174 160 156 150 127 125 128 133 139 146 152 155 163 174 184 174 175 170 171 180 184 173 162 159 142 73 45 33 8 5 8 11 359 354 356 350 337 349
53 113 140 122 114 84 146 98 51 47 78 111 130 146 137 139 138 139 135 139 140 151 164 168 167 161 168 175 189 188 167 159 165 165 121 51 31 10 2 5 4 355 348 354 358 356 351 337 337
93 33 117 125 111 141 341 244 71 112 121 136 136 134 127 132 138 139 143 135 129 133 141 160 170 175 180 196 197 187 187 174 176 221 37 12 4 342 341 344 332 325 336 343 348 342 337 337 324
126 93 92 96 90 137 108 237 72 155 182 182 177 153 143 151 144 145 147 143 137 130 127 135 150 158 164 177 164 134 76 81 83 64 5 342 338 333 329 314 298 296 307 325 334 330 313 313 309
148 85 59 69 107 193 109 230 201 198 205 186 190 177 164 156 150 150 149 155 147 146 150 147 161 142 123 101 84 76 72 72 49 5 336 319 320 315 313 299 280 272 278 287 305 305 276 275 279
90 82 25 15 346 232 12 202 261 213 198 186 185 183 177 175 170 167 167 173 148 141 141 136 134 113 104 90 77 67 57 39 2 334 320 309 305 305 301 294 271 261 264 271 305 276 277 277 282
64 141 160 203 205 244 166 235 217 274 196 184 181 178 177 186 186 177 174 164 141 132 129 124 121 115 105 94 101 71 25 328 316 316 315 309 304 300 300 289 269 271 273 277 301 283 287 276 285
158 123 126 105 38 297 255 270 251 79 155 170 168 173 189 193 183 175 168 148 136 137 138 137 123 117 120 124 130 328 315 319 322 320 319 315 317 320 313 291 280 275 265 304 303 288 296 301 294
140 137 124 41 159 248 278 276 251 202 191 182 182 189 191 188 178 167 152 140 143 150 145 131 132 131 140 159 193 287 72 15 345 341 337 336 335 327 317 306 288 279 274 305 294 283 282 279 281
142 112 65 103 98 172 284 257 219 230 195 195 196 194 190 184 173 158 145 146 151 146 147 146 142 132 124 111 111 98 23 350 345 346 338 331 325 321 305 299 296 283 284 285 288 262 269 284 283
118 142 141 131 182 79 103 274 283 290 221 210 203 187 170 168 159 152 155 160 160 151 148 158 144 120 93 119 88 356 346 341 336 333 329 328 323 316 313 311 295 286 290 295 274 263 287 290 283